Regional Weather Roundup
Issued by NWS Green Bay, WI

Home | Current Version | Previous Version | Text Only | Print | Product List | Glossary On
Versions: 1 2 3 4 5 6 7 8 9 10 11 12 13 14 15 16 17 18 19 20 21 22 23 24 25 26 27 28 29 30 31 32 33 34 35 36 37 38 39 40 41 42 43 44 45 46 47 48 49 50
000
ASUS43 KGRB 010811
RWRGRB

NORTH-CENTRAL AND NORTHEAST WISCONSIN REGIONAL WEATHER ROUNDUP
NATIONAL WEATHER SERVICE GREEN BAY WI
300 AM CDT SUN MAY 01 2016

WIZ005-009-010>012-018-019-010900-
NORTH CENTRAL WISCONSIN

CITY           SKY/WX    TMP DP  RH WIND       PRES   REMARKS
IRONWOOD         N/A     32  30  93 CALM      30.15F
MANITOWISH WTR MOCLDY    36  34  95 N6        30.13F
ARBOR VITAE    CLOUDY    37  34  89 N5        30.12F
EAGLE RIVER    PTCLDY    33  32  96 N6        30.11F
LAND O LAKES   CLOUDY    36  34  92 NE7       30.13F
RHINELANDER    MOCLDY    36  31  82 N6        30.11F
PHILLIPS       PTCLDY    36  32  86 NE7       30.12F
ANTIGO         CLOUDY    40  32  73 NE12      30.08S
TOMAHAWK       CLOUDY    37  32  81 N3        30.11S
MERRILL        CLOUDY    41  32  70 NE7       30.10S
$$

WIZ013-073-010900-
NORTHEAST WISCONSIN

CITY           SKY/WX    TMP DP  RH WIND       PRES   REMARKS
IRON MOUNTAIN  CLOUDY    38  33  82 NW6       30.09F
MARINETTE      MOCLDY    43  32  65 N8        30.07F
OCONTO         CLOUDY    43  34  70 N5        30.07S
$$

WIZ017-030-035>037-045-010900-
CENTRAL WISCONSIN

CITY           SKY/WX    TMP DP  RH WIND       PRES   REMARKS
MEDFORD        CLOUDY    40  32  73 NE10      30.08F
WAUSAU         CLOUDY    46  30  53 VRB6      30.06F
MOSINEE        CLOUDY    43  30  61 NE10      30.08F
MARSHFIELD     CLOUDY    46  29  51 NE10      30.06S
WISC RAPIDS    CLOUDY    47  28  47 E9G18     30.07S
STEVENS POINT  CLOUDY    43  29  57 NE6       30.07S
WAUPACA        DRIZZLE   45  35  66 N6        30.07S
SHAWANO        CLOUDY    46  34  62 NE9       30.08S
CLINTONVILLE   CLOUDY    43  32  65 NE7       30.07S
WAUTOMA        LGT RAIN  44  35  70 NE13      30.05
$$

WIZ038-039-048-051-010900-
FOX VALLEY

CITY           SKY/WX    TMP DP  RH WIND       PRES   REMARKS
NWS GREEN BAY  CLOUDY    44  36  73 NE17      30.05F
APPLETON       DRIZZLE   43  32  65 NE12      30.04S
OSHKOSH        LGT RAIN  44  37  76 N17       30.03S
FOND DU LAC    CLOUDY    45  38  76 NE16      30.02S
$$

WIZ022-050-052-010900-
EAST CENTRAL WISCONSIN

CITY           SKY/WX    TMP DP  RH WIND       PRES   REMARKS
EPHRAIM        FAIR      39  36  90 N7        30.06F
STURGEON BAY   CLOUDY    45  32  61 N8        30.08S
MANITOWOC      LGT RAIN  42  38  85 N12G23    30.04S
SHEBOYGAN      CLOUDY    43  38  82 N12       30.01S
$$

LMZ563-521-522-541>543-010900-
LAKESHORE

STATION/POSITION TIME  TEMP    WIND        PRES    VSBY  WAVE
                       AIR SEA DIR/SP/G                  HT/PER
                 (UTC) (F)     (DEG/KT/KT) (MB)    (MI)  (FT/S)
SHEBOYGAN LKSHOR 0800   41      10/ 17/ 19 1017.2R
KEWAUNEE LKSHORE 0700   42      30/ 12/ 15 1017.3F
ALGOMA MARINA    0700           40/ 15/ 23   N/A
NORTHPORT PIER   0700   41     360/  9/ 10 1018.6R
N MID LAKE BUOY  0750   40 39   10/ 10/ 12 1018.6R         2/ 4
CHAMBERS ISLAND  0740   41      10/ 13/ 16 1018.3F
MENOMINEE LKSHOR 0700   44     360/ 11/ 12 1017.4S
$$



USA.gov is the U.S. government's official web portal to all federal, state and local government web resources and services.